Wind_Speed
88 90 84 96 95 91 92 90 90 93 93 89 85 79 83 86 77 83 79 74 77 78 78 76 74 73 72 74 74 74 75 78 78 76 76 73 73 76 75 73 77 81 85 84
76 83 95 93 94 97 96 94 91 95 92 87 87 80 86 86 83 81 78 79 81 78 80 80 79 77 75 77 80 78 79 79 82 81 78 75 79 83 80 76 79 84 86 86
72 73 86 96 94 93 95 99 102 99 96 91 89 80 89 89 82 85 84 86 83 84 84 83 81 80 79 81 83 82 82 85 86 84 81 78 82 84 76 77 83 86 89 88
72 72 73 83 91 97 99 98 98 102 103 97 96 88 91 94 90 90 92 89 86 86 84 82 80 81 82 84 85 86 88 88 87 85 78 79 81 77 77 83 87 90 91 88
74 72 73 73 78 86 92 98 102 103 102 97 94 96 86 98 98 96 98 95 91 89 85 82 81 84 86 85 86 89 89 86 85 82 80 79 75 78 83 88 90 89 89 86
82 79 76 73 75 78 79 85 92 94 102 102 94 100 79 89 95 97 97 95 95 95 95 94 94 93 94 95 93 90 87 87 84 80 79 76 79 85 88 88 85 87 84 80
85 83 81 77 75 75 74 78 81 82 85 84 87 98 87 89 97 99 97 95 95 96 95 96 97 97 95 95 93 92 89 87 85 84 81 81 88 88 87 85 84 84 81 78
90 86 86 83 79 77 77 75 75 77 78 76 78 74 69 81 90 91 96 96 94 92 92 94 95 94 94 93 92 89 85 82 82 80 84 88 87 85 83 83 80 78 76 75
96 93 90 89 88 85 77 74 78 79 74 75 72 67 67 70 75 82 86 87 88 88 84 83 81 81 81 81 79 80 80 82 88 88 87 89 86 81 77 76 76 74 72 73
105 101 97 94 93 91 86 83 83 82 78 75 66 64 62 68 69 71 75 79 81 82 84 83 79 77 78 81 84 87 89 92 91 88 83 77 74 76 75 74 73 72 72 74
109 108 102 101 99 96 97 91 89 87 83 77 70 63 62 63 66 68 70 72 76 79 80 80 80 82 84 86 84 81 79 78 76 77 76 75 75 74 73 72 72 72 73 73
115 113 107 103 104 103 102 98 95 89 85 84 79 63 67 67 67 67 70 73 74 77 78 78 78 79 80 80 80 80 80 79 78 78 78 77 75 72 71 70 70 71 73 74
117 117 115 113 107 105 106 104 104 100 95 89 84 62 70 72 73 74 75 76 77 78 78 76 77 77 77 78 79 77 77 76 76 76 74 73 71 71 71 70 72 73 73 74
124 125 122 117 109 110 111 109 110 110 107 86 85 71 72 73 77 78 80 81 80 80 80 80 80 79 76 75 74 73 73 71 71 70 70 68 68 68 70 71 72 73 71 71
132 129 126 124 118 119 116 112 114 115 107 105 83 89 86 83 83 85 84 83 82 83 84 82 81 80 78 76 74 75 74 73 73 72 72 71 70 68 68 69 69 69 69 69
136 135 131 128 125 126 123 121 120 117 111 110 97 97 93 93 94 95 95 93 88 86 85 84 83 83 82 81 79 75 72 73 72 72 74 74 74 71 71 71 71 71 72 72
138 138 135 134 126 132 138 127 120 121 119 116 112 102 109 106 106 107 103 99 92 88 86 83 83 84 86 85 84 80 77 74 72 70 72 74 77 74 74 73 72 73 72 71
137 139 139 138 134 143 137 128 129 130 126 127 124 118 114 111 112 110 108 104 100 95 91 89 88 86 87 88 88 86 85 84 81 77 76 74 78 76 75 74 73 73 73 73
128 135 141 144 144 144 144 136 133 135 136 134 132 129 124 118 116 115 114 109 104 104 103 100 95 94 90 88 89 88 89 89 86 83 82 82 83 81 79 78 78 76 75 75
123 124 134 143 148 148 146 140 139 140 143 139 135 133 130 125 122 121 120 116 113 110 108 106 101 98 96 91 89 89 89 91 89 88 86 87 86 82 82 83 82 81 79 79
121 125 131 136 139 144 146 144 142 140 144 140 138 135 131 128 126 124 122 120 117 114 111 109 106 101 97 96 94 92 92 93 92 93 93 91 89 86 85 85 86 85 82 82
107 119 128 130 130 133 132 137 146 144 146 145 142 139 137 133 131 127 125 122 119 117 115 112 110 108 105 102 98 94 94 95 96 95 94 92 91 89 90 89 89 87 86 86
103 105 112 120 125 127 127 127 129 135 143 148 148 144 139 137 133 129 127 126 125 121 119 115 114 112 109 107 102 101 100 99 99 100 99 96 95 95 95 93 93 92 91 91
96 101 103 108 113 118 119 121 123 123 127 134 145 149 144 143 143 139 134 131 129 126 125 123 119 118 116 113 111 109 109 106 104 105 105 104 102 100 98 97 96 96 95 96
90 92 96 99 104 108 110 114 116 116 116 121 126 131 138 141 142 141 140 139 138 135 131 132 129 126 126 125 122 117 117 115 111 112 111 109 107 106 105 103 103 103 101 100
79 86 92 94 98 102 106 109 113 114 113 110 114 118 121 125 126 133 145 150 146 142 141 140 138 139 137 134 135 131 129 124 123 122 121 117 113 110 109 107 109 108 108 107
Wind_Direction
246 252 248 243 245 246 247 250 248 253 257 256 255 252 256 257 258 262 260 262 266 265 266 267 269 271 274 276 276 277 278 279 281 283 287 286 288 291 293 296 296 300 304 306
253 247 247 250 248 245 245 248 251 254 254 254 258 257 257 259 256 258 260 261 263 264 267 267 269 271 270 271 272 274 276 277 280 282 288 283 284 289 293 293 295 300 303 304
256 253 251 247 249 250 250 248 246 249 252 252 254 255 255 259 256 256 256 258 259 265 265 267 267 268 269 270 271 274 276 280 284 284 287 279 282 288 290 293 297 300 301 301
255 258 255 252 250 249 251 253 251 250 252 251 255 256 261 259 257 257 259 260 263 266 264 262 264 269 270 269 271 273 278 282 282 284 282 281 285 286 286 291 296 297 298 299
257 256 256 256 252 253 250 251 252 253 254 254 255 254 258 265 267 265 263 265 264 264 264 262 263 265 266 268 269 274 278 279 280 282 282 284 283 285 286 291 293 294 295 296
257 258 258 258 257 256 252 253 253 253 254 253 256 257 251 259 261 262 264 265 264 265 265 264 265 268 269 271 272 276 277 278 280 283 283 282 280 285 289 290 290 291 292 292
256 258 260 260 260 259 258 255 254 255 255 254 254 256 254 254 256 257 258 262 265 265 266 267 268 269 270 272 273 276 279 280 280 281 280 276 281 284 285 284 286 289 290 291
256 258 259 259 260 259 259 259 261 259 256 255 253 255 257 254 252 256 259 258 259 263 266 268 270 271 272 273 275 276 275 274 273 272 275 280 280 279 280 283 285 285 286 287
251 254 257 257 259 260 262 263 262 260 259 258 258 256 255 257 257 257 259 263 262 261 262 260 260 263 265 266 267 266 265 266 270 274 275 275 277 277 278 279 283 284 285 284
251 251 253 256 257 260 262 263 264 264 262 261 258 257 257 259 260 260 260 263 265 266 265 262 262 263 264 263 263 263 264 264 266 269 272 272 273 276 277 279 281 282 282 283
252 251 250 253 255 256 257 260 264 264 263 264 261 257 256 257 259 260 262 262 263 265 266 267 268 267 266 265 264 264 263 265 267 272 273 273 276 277 277 278 278 278 280 283
251 252 251 252 253 254 256 259 262 266 264 261 259 258 262 260 261 263 263 262 260 261 261 263 266 267 266 267 267 269 271 273 273 274 276 276 276 276 275 275 276 278 280 284
248 250 251 250 249 254 258 259 260 262 262 259 258 258 265 265 264 264 263 263 263 262 262 263 263 263 264 266 267 270 272 274 274 274 275 275 277 276 275 276 276 278 281 284
247 250 250 250 252 252 253 255 257 260 261 264 260 260 258 261 264 265 266 267 266 265 266 265 264 263 264 266 269 271 273 273 273 273 274 276 278 279 277 277 278 281 283 285
247 248 250 252 251 252 253 254 256 259 261 262 262 260 259 259 261 264 264 264 265 265 263 264 267 268 269 269 268 268 269 270 272 274 276 277 278 277 279 279 281 283 284 285
246 248 250 250 252 254 254 253 254 257 259 261 262 261 262 261 260 259 259 259 259 263 267 270 269 269 270 270 270 270 273 276 277 278 278 278 277 277 276 277 279 281 283 286
246 248 247 249 250 252 253 254 256 256 256 259 258 260 256 256 257 258 261 262 264 265 268 266 266 266 266 267 267 267 267 268 270 272 274 274 275 275 277 279 281 282 284 285
245 246 248 248 246 248 252 252 253 255 254 256 257 257 258 259 260 260 261 262 262 262 262 263 261 262 264 266 267 269 269 269 268 267 268 270 272 276 278 280 281 281 283 285
247 244 245 247 248 248 249 249 250 251 253 254 256 257 256 257 258 260 262 262 264 265 267 267 266 263 263 265 267 267 268 267 267 268 269 269 269 273 276 277 278 280 283 284
247 247 247 245 247 249 249 247 248 251 252 253 255 256 258 257 257 258 260 262 263 263 264 265 266 262 260 262 263 263 264 266 266 266 267 269 272 274 276 277 278 280 281 282
247 249 248 247 247 249 249 249 250 249 252 253 254 255 255 255 256 257 258 259 260 261 261 262 264 264 263 264 264 264 264 263 264 265 265 266 268 269 270 271 273 275 278 280
248 246 248 250 250 251 249 250 250 251 253 253 253 254 257 257 258 258 259 260 261 261 261 262 262 263 264 264 265 265 266 265 265 266 266 266 268 270 271 273 274 275 276 278
247 248 248 248 249 250 251 250 248 249 250 252 253 253 254 255 255 256 257 259 260 260 260 260 262 263 263 264 265 266 267 267 266 265 265 266 267 268 270 271 273 274 275 276
247 247 248 248 249 250 251 251 251 250 250 250 252 254 255 256 256 257 257 258 257 259 261 261 261 261 263 264 264 265 265 268 268 266 266 266 267 268 270 271 273 274 275 277
248 249 249 249 250 252 252 253 253 252 250 250 250 251 252 254 255 256 256 256 256 256 258 260 263 264 263 264 265 264 265 266 266 266 265 266 267 268 268 270 272 274 275 276
249 250 250 249 248 250 251 251 253 254 253 252 252 252 252 253 254 254 254 254 254 256 257 257 256 258 262 264 265 266 266 266 265 264 265 266 266 267 268 269 271 271 273 275
Height
10628 10636 10646 10626 10637 10650 10653 10657 10659 10658 10660 10671 10677 10691 10681 10681 10697 10693 10694 10697 10699 10697 10692 10698 10699 10700 10697 10694 10694 10693 10691 10688 10689 10686 10683 10680 10676 10671 10669 10667 10662 10657 10652 10647
10611 10620 10609 10616 10623 10629 10632 10637 10642 10633 10639 10653 10657 10675 10667 10665 10680 10679 10679 10681 10681 10682 10679 10683 10685 10685 10684 10680 10677 10678 10676 10676 10675 10673 10672 10668 10663 10658 10658 10655 10649 10644 10638 10633
10592 10598 10594 10599 10601 10606 10610 10616 10618 10619 10621 10632 10641 10658 10649 10649 10661 10661 10662 10660 10665 10667 10664 10666 10670 10669 10670 10666 10661 10661 10661 10660 10662 10659 10658 10652 10649 10647 10645 10641 10636 10630 10625 10620
10578 10579 10574 10575 10582 10582 10591 10591 10596 10598 10602 10617 10620 10645 10634 10628 10640 10644 10640 10641 10645 10647 10648 10648 10651 10652 10651 10648 10647 10644 10645 10644 10644 10643 10640 10636 10636 10633 10631 10626 10621 10615 10611 10606
10561 10560 10557 10558 10560 10560 10572 10570 10574 10576 10580 10594 10609 10613 10639 10605 10616 10615 10616 10624 10625 10627 10630 10631 10633 10634 10631 10632 10630 10630 10629 10629 10627 10626 10625 10623 10621 10618 10616 10611 10606 10601 10595 10590
10536 10539 10539 10541 10540 10541 10551 10552 10550 10555 10561 10574 10587 10579 10632 10604 10590 10586 10592 10602 10604 10607 10610 10612 10612 10616 10614 10612 10613 10614 10612 10611 10610 10609 10608 10607 10605 10603 10598 10594 10590 10585 10580 10575
10509 10517 10521 10521 10522 10524 10528 10527 10527 10534 10543 10561 10561 10561 10604 10595 10573 10567 10571 10576 10581 10586 10589 10591 10591 10593 10593 10593 10593 10595 10593 10591 10590 10591 10592 10590 10588 10586 10581 10578 10574 10569 10565 10561
10486 10496 10498 10504 10503 10502 10505 10512 10513 10518 10523 10532 10539 10559 10568 10566 10564 10551 10546 10555 10562 10563 10566 10568 10569 10570 10571 10573 10575 10575 10573 10573 10572 10574 10575 10572 10569 10568 10564 10561 10557 10552 10549 10546
10463 10470 10474 10479 10481 10482 10493 10497 10492 10494 10505 10513 10528 10542 10543 10538 10539 10540 10537 10534 10538 10547 10547 10547 10547 10549 10551 10553 10554 10554 10555 10555 10556 10556 10555 10553 10552 10550 10547 10544 10540 10538 10534 10531
10437 10446 10453 10456 10459 10464 10474 10474 10472 10475 10485 10493 10512 10520 10528 10518 10520 10522 10523 10521 10520 10521 10525 10528 10528 10531 10535 10536 10537 10538 10538 10537 10537 10538 10537 10537 10535 10534 10531 10528 10524 10522 10518 10515
10410 10413 10432 10433 10442 10444 10444 10454 10453 10454 10465 10476 10491 10505 10502 10503 10502 10502 10505 10506 10503 10502 10502 10502 10507 10512 10515 10516 10517 10518 10518 10519 10520 10521 10521 10520 10519 10517 10515 10513 10510 10506 10502 10499
10380 10380 10399 10410 10415 10415 10421 10432 10434 10437 10447 10449 10461 10491 10484 10484 10486 10486 10483 10484 10486 10485 10486 10487 10488 10490 10490 10491 10493 10496 10500 10502 10502 10502 10502 10501 10502 10501 10499 10496 10495 10491 10487 10485
10358 10350 10360 10371 10386 10400 10406 10412 10409 10411 10413 10427 10440 10479 10466 10466 10464 10460 10461 10462 10463 10464 10466 10471 10472 10472 10472 10474 10477 10481 10482 10483 10482 10482 10484 10484 10484 10484 10482 10481 10479 10475 10473 10470
10321 10319 10331 10347 10368 10365 10370 10383 10383 10381 10384 10423 10425 10452 10448 10444 10437 10439 10441 10439 10441 10443 10445 10446 10447 10452 10458 10461 10464 10465 10465 10465 10464 10465 10466 10467 10468 10468 10466 10464 10462 10460 10458 10454
10282 10292 10306 10319 10335 10335 10344 10356 10357 10357 10378 10373 10423 10411 10417 10420 10420 10416 10416 10415 10419 10418 10420 10425 10430 10435 10440 10443 10445 10445 10445 10446 10448 10449 10450 10449 10450 10451 10449 10446 10446 10444 10442 10440
10260 10263 10278 10291 10302 10305 10313 10322 10327 10340 10357 10354 10387 10386 10394 10392 10389 10384 10379 10386 10398 10403 10409 10414 10416 10417 10418 10421 10425 10428 10430 10429 10432 10433 10431 10430 10429 10432 10430 10430 10430 10429 10426 10425
10226 10233 10251 10256 10284 10271 10253 10294 10317 10316 10321 10330 10335 10365 10346 10354 10349 10348 10362 10374 10385 10390 10392 10393 10393 10394 10395 10397 10400 10406 10410 10412 10415 10414 10410 10408 10407 10410 10410 10412 10412 10408 10407 10406
10191 10201 10211 10217 10238 10217 10244 10274 10274 10273 10289 10287 10297 10315 10326 10330 10328 10334 10336 10344 10356 10365 10366 10367 10371 10373 10374 10376 10380 10384 10387 10390 10393 10394 10391 10387 10382 10388 10390 10391 10391 10388 10389 10387
10153 10167 10171 10174 10187 10197 10202 10231 10243 10242 10245 10252 10260 10272 10288 10301 10303 10306 10312 10321 10328 10334 10342 10345 10349 10352 10355 10357 10359 10362 10364 10365 10369 10373 10373 10369 10365 10372 10373 10372 10370 10370 10371 10369
10119 10131 10130 10142 10144 10153 10170 10189 10196 10205 10207 10217 10228 10239 10254 10269 10272 10277 10284 10293 10300 10305 10312 10317 10322 10326 10332 10334 10338 10340 10341 10343 10347 10347 10350 10350 10351 10358 10356 10354 10353 10353 10353 10352
10090 10095 10090 10097 10104 10116 10132 10151 10165 10172 10168 10183 10195 10204 10215 10228 10239 10244 10253 10261 10269 10276 10284 10288 10291 10297 10305 10309 10313 10315 10319 10321 10324 10326 10327 10329 10331 10335 10333 10334 10334 10333 10335 10333
10063 10060 10062 10065 10074 10077 10096 10115 10129 10135 10137 10150 10159 10169 10180 10192 10202 10213 10221 10229 10239 10244 10252 10261 10266 10270 10273 10279 10285 10289 10292 10295 10297 10299 10302 10305 10308 10311 10310 10311 10312 10314 10313 10314
10027 10029 10036 10037 10036 10042 10056 10071 10088 10094 10111 10116 10125 10138 10148 10156 10169 10178 10184 10192 10200 10212 10219 10228 10235 10239 10246 10251 10257 10260 10263 10266 10270 10273 10276 10280 10283 10287 10286 10288 10290 10291 10291 10292
9993 9999 10004 10010 10010 10014 10026 10035 10047 10061 10071 10079 10090 10099 10113 10124 10134 10145 10154 10161 10168 10174 10180 10190 10202 10208 10212 10219 10225 10232 10235 10239 10241 10242 10246 10252 10256 10259 10260 10262 10263 10265 10266 10267
9964 9972 9980 9984 9986 9987 9998 10003 10007 10018 10032 10041 10051 10060 10070 10083 10092 10104 10116 10126 10134 10143 10151 10156 10163 10171 10176 10182 10189 10198 10202 10207 10212 10213 10216 10222 10228 10232 10234 10237 10237 10239 10241 10243
9951 9949 9945 9952 9956 9956 9963 9969 9974 9980 9992 10006 10015 10023 10033 10041 10052 10066 10077 10086 10095 10101 10110 10123 10134 10138 10139 10145 10146 10158 10165 10173 10177 10177 10181 10191 10198 10202 10204 10208 10208 10212 10215 10215